Theta_e
307 306 305 304 303 303 303 302 303 302 301 301 301 301 301 300 300 300 299 299 300 300
308 306 305 305 305 304 304 303 303 300 300 301 300 300 299 298 298 299 298 299 299 298
309 308 306 305 302 301 302 302 301 300 300 299 299 299 298 297 297 296 296 296 296 295
308 307 306 305 304 303 303 303 301 301 300 299 298 299 297 295 295 294 294 294 294 294
308 307 307 306 306 305 305 304 302 302 300 299 298 297 295 295 295 293 293 292 291 290
308 308 307 306 306 306 305 303 303 301 299 298 296 294 294 295 295 293 292 292 289 289
308 308 308 307 306 305 303 300 298 298 298 297 295 295 295 294 293 293 293 292 292 291
310 309 308 306 304 302 300 299 300 298 297 296 295 297 296 296 293 291 291 290 289 283
310 309 306 304 303 302 301 300 299 298 297 296 298 293 294 293 291 291 289 286 283 282
309 307 305 305 303 302 301 301 298 296 296 294 292 292 293 293 291 290 290 288 284 283
308 305 305 303 300 301 301 294 293 294 292 293 288 291 291 290 289 287 286 287 286 281
306 304 304 296 292 294 297 292 289 289 289 287 286 289 289 288 286 285 284 284 283 280
300 299 296 296 292 288 291 288 290 287 287 288 286 288 289 287 285 283 283 280 279 284
304 301 297 294 291 289 288 287 287 286 286 286 286 286 289 288 286 284 283 282 282 282
Wind_Speed
11 8 9 11 10 9 9 9 10 11 8 9 10 6 7 5 5 7 5 8 5 3
8 8 8 9 7 6 7 7 8 8 14 12 8 8 6 5 6 5 5 5 5 3
8 8 8 8 10 8 9 9 11 9 10 10 9 9 7 6 5 5 4 4 6 4
11 11 11 10 10 10 11 11 10 10 10 10 9 8 7 6 7 6 6 7 6 6
12 12 11 10 11 11 11 10 11 9 9 9 9 8 7 7 7 7 7 7 7 6
12 12 12 13 12 11 11 10 9 9 10 9 8 7 5 6 7 7 6 6 7 6
12 12 11 12 12 11 9 10 9 9 9 9 9 9 9 8 6 6 6 6 5 5
12 12 12 11 10 10 11 12 12 9 8 9 8 8 8 8 7 7 7 6 5 8
14 13 14 14 12 12 12 11 12 10 9 7 6 11 13 9 7 6 7 6 8 6
15 12 12 14 15 13 12 12 10 9 10 9 6 13 14 10 7 6 6 8 8 4
12 13 14 14 12 13 12 9 8 8 9 9 6 13 13 10 8 8 6 6 7 8
12 14 15 12 12 9 10 9 7 9 9 11 8 15 15 12 8 9 8 8 7 7
12 12 13 15 14 6 11 10 10 9 6 9 9 15 18 15 8 10 7 6 4 11
14 17 13 13 10 11 11 11 10 10 7 8 10 13 18 17 9 8 8 7 6 6
Wind_Direction
137 144 146 146 147 152 157 160 158 139 117 125 128 124 122 124 116 118 124 118 111 119
141 142 151 141 135 143 128 130 129 125 119 126 133 142 131 150 132 145 135 126 117 102
121 113 114 106 101 106 110 126 130 140 139 134 156 143 156 139 132 144 123 117 124 130
130 123 128 124 140 144 147 148 149 154 148 149 156 157 146 144 150 142 143 143 150 160
144 143 149 150 150 158 160 150 160 161 153 164 151 164 147 159 155 149 138 143 129 138
155 159 157 158 161 161 153 160 162 152 154 155 140 124 131 127 130 128 130 135 142 160
162 165 161 163 160 152 141 138 149 167 158 150 150 151 159 149 155 155 150 142 154 155
169 169 161 152 158 155 158 165 164 161 154 153 161 174 166 144 136 130 117 102 99 59
173 167 167 161 167 175 167 170 164 166 156 157 174 136 129 127 126 145 127 130 97 95
167 163 167 164 160 177 174 170 166 156 152 152 130 134 133 142 136 123 141 132 123 128
176 164 176 162 170 172 172 164 158 154 143 123 140 134 127 99 97 90 74 101 127 125
182 184 177 165 168 174 154 150 149 149 144 131 148 140 134 122 117 110 111 119 121 124
178 187 186 173 169 157 149 149 145 137 127 139 158 159 151 146 132 143 133 131 121 149
191 188 183 164 154 144 143 145 140 140 143 162 172 174 168 149 150 151 148 158 160 162